Карточка аэропорта UHPP

Внимание!
Информация на этой странице в стадии наполнения.
Если вы не увидели какой-то информации, или заметили неточность - пожалуйста сообщите нам!
Спасибо!
Команда RU-STAFF
Название аэропортаЕлизово
Название аэропорта (англ.)Yelizovo
Превышение131 ft. (39.9 m.)
Координаты53°10.002', 158°27.24'
Высота перехода2400m
Эшелон переходаQFE>756:FL90;756>QFE>729:FL100;729>QFE:FL110
Коды ответчика6630-6657
Зона ОрВДПетропавловск-Камчатский РПИ (UHPP)
Данные METARUHPP 271100Z 34004MPS 9999 BKN100 M08/M15 Q0987 R34L/CLRD70 NOSIG RMK QFE737/0983
Проноз погоды (TAF)UHPP 270735Z 2709/2815 34007G17MPS 9999 BKN030CB BKN050 TEMPO 2710/2810 1000 SHSN BLSN VV003
NOTAMshow/hide NOTAM
AWOS   TABLE

Информация о ВПП

ВПП Длина ВПП (м.) Покрытие Курс ВПП Частота ILS
34R3400Бетон344110.3
16L3400Бетон164 
34L2500Бетон344 
16R2500Бетон164 

Диспетчерские позиции

Позывной Наименование органа УВД Частота
UHPP_TWRПетропавловск - Старт118.100
UHPP_R_APPПетропавловск - Круг119.400



Спутниковое изображение